Wind_Speed
17 17 17 18 19 19 20 20 20 21 22 24 27 29 31 31 31 30 30 30 30 28 25 22 19 17 17 16 15 16 17 19 20 19 19 18 16 15 14 12 9 4 2 4 5 6 8 6 5 7 7 6 5 6 5 3 3 4 4 4 4 4
16 16 17 18 19 20 20 21 21 23 25 26 28 30 31 31 30 30 30 30 30 27 24 22 19 17 17 16 15 16 18 19 20 19 19 18 16 15 14 13 10 5 3 4 4 6 8 6 5 6 6 5 4 4 3 2 2 3 3 4 4 5
16 16 17 19 20 21 21 22 24 26 26 26 28 29 30 30 30 29 29 29 27 23 22 22 19 17 16 15 16 16 18 19 20 19 19 18 16 15 14 13 10 5 3 4 5 7 7 5 5 6 6 5 4 3 2 1 2 3 4 5 6 6
16 17 19 20 22 23 24 25 26 27 26 26 27 28 30 30 29 28 26 26 23 21 21 21 19 18 16 15 16 17 17 18 19 19 18 18 16 15 14 13 10 6 4 4 6 7 6 5 6 7 6 6 5 4 4 3 4 4 6 7 8 9
18 20 22 24 25 26 26 27 27 27 26 26 26 28 30 31 29 26 24 24 22 21 21 20 18 17 15 16 16 17 17 17 18 19 18 17 16 15 15 13 10 7 5 5 7 6 5 6 7 8 7 7 7 6 6 7 7 8 8 9 10 10
21 23 25 26 27 27 28 28 28 27 27 26 27 29 31 31 29 25 22 22 21 22 21 19 17 16 16 16 16 16 17 17 18 18 17 17 17 16 15 13 10 8 6 6 7 6 6 6 7 8 7 6 6 5 4 5 7 8 9 9 8 9
24 25 26 27 28 28 28 28 28 27 27 27 28 30 31 30 27 22 20 19 18 20 20 19 18 17 16 16 17 17 17 17 18 18 18 18 18 17 15 12 10 9 8 7 7 6 6 6 7 7 6 6 5 5 5 6 7 8 8 8 9 9
25 26 27 28 28 28 28 27 27 26 26 27 28 30 29 26 23 20 18 17 18 18 19 20 19 17 17 17 17 17 17 17 18 18 18 18 18 17 15 12 10 10 9 9 8 6 5 5 6 6 6 6 6 7 7 7 8 8 9 9 10 11
27 27 28 29 29 29 27 25 24 23 24 26 27 27 26 22 20 19 18 18 19 19 18 19 19 18 18 17 17 16 16 16 16 15 15 17 17 16 14 11 10 10 9 10 9 6 5 4 6 6 6 6 7 7 7 8 9 9 10 10 11 11
28 28 29 30 30 29 27 25 24 24 24 25 26 24 22 20 19 19 18 19 19 19 18 18 19 19 18 17 16 16 16 15 13 13 14 16 17 15 13 11 10 9 10 11 10 7 5 5 5 6 7 7 6 6 7 9 10 10 11 11 12 12
30 30 29 29 30 28 26 25 24 23 23 24 24 23 21 20 20 19 18 18 19 19 20 20 20 20 18 16 16 15 15 15 13 13 14 16 16 14 12 11 10 9 10 11 11 9 6 6 5 5 7 7 7 7 8 9 9 10 11 11 12 13
30 31 29 27 29 28 27 26 24 21 21 23 23 22 22 21 19 19 18 19 19 20 20 20 19 19 17 16 15 15 15 14 13 13 14 15 15 14 11 10 10 10 10 12 12 10 8 7 6 5 6 7 7 7 8 9 8 9 10 11 12 12
27 28 27 27 28 27 27 27 25 24 21 21 23 23 22 21 19 19 19 19 19 18 18 18 18 17 16 15 15 15 14 13 12 12 14 16 15 12 10 10 10 10 11 12 12 11 9 7 6 6 6 6 6 7 8 8 7 8 9 11 12 10
24 26 28 29 29 25 24 24 25 25 23 22 23 23 22 21 20 19 19 20 19 18 17 17 17 16 16 15 15 15 14 12 11 12 15 16 14 12 10 10 10 11 12 14 13 11 10 8 7 7 6 6 6 7 8 7 7 7 9 11 11 9
24 26 26 27 27 25 23 25 26 25 24 24 23 23 22 21 19 19 20 20 19 18 18 17 16 15 15 16 16 16 13 11 10 11 14 17 16 14 12 11 11 13 15 16 15 13 12 9 7 7 7 7 6 7 7 7 7 7 8 10 9 8
22 23 22 22 23 23 24 26 26 25 23 23 23 23 22 20 19 19 20 21 20 18 18 17 15 15 15 16 16 15 12 10 10 10 12 15 15 14 13 12 11 14 17 18 17 15 12 10 9 8 7 7 6 6 7 7 7 7 8 8 8 7
20 21 21 20 22 23 25 26 25 25 24 23 23 23 22 21 20 20 20 22 21 19 18 17 15 15 15 15 15 13 11 11 10 10 12 13 12 12 13 13 12 12 15 16 15 13 11 9 9 8 7 7 6 6 7 7 7 7 7 8 7 6
23 24 21 21 24 25 25 26 25 25 25 23 23 23 22 22 20 19 20 22 21 19 19 17 16 16 16 15 15 14 12 12 12 11 12 13 13 13 13 14 14 14 14 14 14 13 11 9 8 8 7 7 6 6 7 7 7 7 7 8 7 6
24 23 21 23 26 26 25 24 23 24 24 21 21 22 22 21 19 19 20 22 21 19 19 18 17 17 17 16 15 14 13 13 13 13 12 13 13 13 13 13 14 14 14 14 14 13 11 9 8 7 7 7 7 6 7 7 7 7 7 8 7 6
21 17 18 23 26 25 24 24 24 23 23 22 21 20 21 20 18 19 20 21 21 20 19 18 17 17 17 16 15 15 15 14 13 13 13 13 13 13 13 12 12 13 14 14 14 12 10 8 8 7 7 7 7 7 7 7 8 8 8 8 7 5
24 22 24 25 25 26 25 23 22 21 23 23 21 19 19 19 19 19 18 18 19 19 18 17 17 16 16 16 14 14 15 15 14 13 12 13 14 14 14 13 13 14 14 15 14 11 9 8 8 7 7 8 8 7 7 8 8 8 8 8 8 6
27 27 26 22 19 20 23 22 19 20 23 23 20 19 18 18 19 18 16 17 17 17 17 16 16 15 15 15 14 14 15 16 15 12 11 12 13 14 14 14 15 15 15 15 13 11 10 9 9 8 8 8 8 8 8 9 9 9 8 8 8 8
26 25 24 22 18 15 17 21 21 22 24 22 19 18 17 18 19 17 15 17 17 16 16 15 15 15 15 15 14 15 16 17 16 13 12 12 14 14 14 15 16 16 16 15 13 12 11 10 10 9 9 9 9 9 9 9 9 9 9 9 9 8
25 24 24 24 24 22 19 17 20 24 22 20 19 16 18 20 19 17 16 17 17 17 17 16 16 16 15 15 15 16 17 17 17 15 14 14 14 14 15 15 16 16 16 15 13 12 12 11 11 10 10 10 9 9 9 9 9 9 9 9 9 10
23 24 25 26 26 25 21 20 16 23 22 19 19 17 19 21 20 17 16 16 16 17 17 16 17 16 15 16 16 17 17 17 18 16 15 15 14 14 16 17 17 17 16 14 13 13 13 13 12 11 11 11 10 9 9 9 9 9 9 10 10 11
22 23 24 26 27 25 22 20 12 17 21 20 19 18 20 20 18 16 15 15 16 17 17 17 17 16 15 16 17 18 18 18 18 17 16 15 14 15 18 19 19 18 16 14 14 15 15 14 13 12 12 12 10 10 10 10 10 10 10 10 11 12
22 22 21 23 24 23 21 16 8 8 17 20 20 18 19 18 17 16 16 16 16 17 17 16 16 16 16 16 18 19 18 18 18 17 16 16 16 18 19 20 20 19 17 16 16 16 15 15 14 13 13 13 11 11 10 10 10 10 11 11 11 12
22 20 20 19 19 18 18 14 8 6 10 16 19 19 18 18 18 19 18 18 17 17 17 16 16 16 17 18 18 18 18 18 18 18 17 17 18 20 21 21 21 20 18 17 17 17 16 16 16 14 14 14 12 12 11 11 11 12 12 12 12 12
22 20 19 18 15 13 13 14 11 10 9 11 15 20 20 20 20 20 19 18 17 17 17 17 18 18 19 20 19 18 18 19 19 18 18 18 20 21 22 22 22 21 19 18 18 18 18 18 17 16 15 14 13 13 12 12 13 13 13 13 13 12
21 20 19 19 16 11 10 12 12 12 13 12 14 18 20 20 20 20 18 17 18 18 18 19 20 21 22 22 21 20 20 20 20 19 19 19 21 22 23 23 23 21 20 19 19 20 19 18 18 17 15 14 14 14 14 14 15 15 14 13 13 13
19 18 19 19 18 14 12 12 12 13 14 15 15 17 19 19 20 20 19 19 19 20 20 20 21 22 24 24 23 22 21 21 20 19 19 20 21 22 22 23 22 21 21 21 20 20 20 19 18 17 15 15 15 15 15 15 16 15 15 14 14 14
20 21 22 20 20 19 16 15 15 15 15 16 16 16 17 19 21 21 20 19 20 21 22 21 21 22 24 25 24 23 22 21 20 19 19 20 20 21 22 23 22 22 21 21 21 21 21 20 19 17 16 16 16 16 16 16 16 16 15 14 14 14
20 22 22 20 20 21 19 18 18 17 16 17 17 16 16 17 20 21 21 19 20 21 22 22 22 23 24 25 25 24 23 22 21 19 20 20 21 21 22 22 22 22 21 22 22 22 22 21 20 18 17 17 16 16 17 17 17 17 16 15 14 14
22 21 20 19 21 23 22 20 19 18 18 18 19 19 17 17 19 21 21 21 22 23 23 23 22 23 24 24 25 25 24 22 21 20 21 22 22 22 22 22 23 23 22 22 23 23 23 22 20 19 18 17 17 17 17 17 17 17 16 15 14 14
23 22 21 20 20 22 23 23 20 20 21 21 21 22 21 19 19 21 21 22 23 24 24 24 23 24 24 25 26 26 25 24 23 22 22 23 22 22 21 22 22 23 23 23 23 23 22 22 21 20 19 18 18 18 18 18 17 16 15 15 15 15
22 23 23 22 20 20 23 24 23 22 23 24 24 23 23 20 19 20 21 22 23 24 24 24 24 25 26 26 26 26 26 25 24 24 24 24 23 22 22 22 22 23 23 23 23 22 22 22 21 20 19 18 18 18 18 18 17 16 15 15 16 16
24 24 24 22 20 20 23 24 24 23 23 25 26 25 23 20 19 19 20 22 23 23 23 23 24 26 27 27 27 27 27 27 25 25 25 25 24 23 22 22 22 22 22 22 22 22 22 22 21 20 19 19 19 19 18 18 17 16 16 17 17 17
Wind_Direction
246 245 244 246 249 251 253 255 258 261 265 271 274 276 278 279 280 281 281 281 280 282 283 282 289 290 286 286 286 290 296 300 301 301 301 299 298 298 299 300 300 299 202 213 247 265 266 260 260 270 279 286 283 280 279 265 247 253 260 259 260 263
249 249 248 249 250 252 254 257 260 264 268 273 275 276 277 277 277 278 277 276 277 278 277 277 284 285 281 281 282 288 294 298 300 299 298 297 296 295 296 298 297 294 215 216 241 257 268 280 282 279 284 286 279 277 284 264 235 245 252 252 261 266
257 256 256 254 255 257 259 262 265 268 273 276 276 275 275 275 275 275 275 275 274 271 270 273 278 278 277 277 280 285 291 297 298 296 294 293 292 292 294 295 294 287 234 222 239 253 271 290 286 283 288 288 282 264 244 194 207 234 244 246 250 255
264 264 262 260 260 260 263 266 268 272 276 277 275 274 274 275 275 274 272 271 267 262 264 270 273 274 273 273 276 282 290 295 294 293 291 287 287 289 291 291 291 282 250 232 240 254 275 286 284 287 287 280 282 275 254 259 268 265 260 255 255 257
263 263 261 260 260 261 264 267 271 275 276 275 274 273 274 276 275 272 267 264 261 258 258 262 268 270 268 269 274 280 286 289 289 289 287 284 284 285 287 288 287 279 259 243 241 254 273 279 282 285 282 275 284 292 273 266 272 271 268 265 265 268
255 256 256 257 258 260 265 269 274 275 274 273 272 272 274 274 273 267 261 257 256 257 257 259 264 264 262 265 271 277 282 283 284 284 283 283 283 283 284 286 285 278 267 252 245 252 266 272 276 279 281 278 287 307 298 277 272 268 269 272 277 280
247 250 252 254 256 260 265 271 273 273 272 271 270 272 273 273 268 261 255 250 253 258 259 259 260 257 257 262 268 273 277 279 281 281 280 281 281 281 283 286 284 279 271 260 252 251 261 269 269 271 280 282 286 302 302 295 287 276 274 281 288 290
243 246 249 252 254 259 266 270 270 269 270 269 270 272 274 271 263 255 251 248 253 257 257 257 253 251 253 258 265 269 273 276 279 279 277 276 277 279 283 285 282 278 272 266 261 253 257 261 257 260 271 282 287 291 292 296 296 290 285 288 293 294
239 243 246 249 253 259 264 264 264 265 266 267 269 271 271 265 255 251 251 249 252 253 254 254 249 247 249 254 260 264 269 272 275 275 272 272 274 278 285 285 277 275 272 269 264 259 261 244 236 248 263 280 290 292 292 295 299 301 299 299 300 300
238 240 244 247 252 257 257 258 262 263 262 264 266 266 262 255 252 251 251 251 251 252 254 255 250 247 248 251 255 260 263 265 268 270 269 271 274 279 285 279 271 272 270 269 267 265 262 231 220 240 256 275 287 289 290 292 297 302 304 304 304 304
240 241 245 248 253 256 254 255 260 258 255 258 260 257 253 252 254 254 251 251 251 250 254 255 251 246 244 246 251 254 256 257 262 265 267 272 274 275 276 270 269 269 266 268 268 267 256 225 216 237 249 265 282 286 287 289 295 302 303 303 305 306
244 241 244 248 253 257 257 256 253 247 246 251 254 253 253 255 255 254 253 252 250 250 252 250 246 242 241 244 249 250 249 251 257 261 265 268 267 266 263 262 264 263 262 263 264 265 252 227 223 244 254 268 285 288 285 287 298 307 305 304 309 308
256 251 250 251 250 252 259 260 254 249 245 246 250 252 255 255 251 251 252 250 248 248 247 242 239 239 243 247 248 247 247 251 257 261 260 254 255 260 256 253 256 258 257 253 256 261 252 235 234 249 262 278 289 286 283 291 303 309 305 307 311 307
263 262 264 264 255 247 251 254 250 249 248 247 250 253 253 253 250 250 249 246 244 244 241 237 237 241 247 250 246 245 248 255 260 259 250 241 245 255 254 254 254 252 251 246 249 256 254 246 244 250 261 275 280 278 282 291 299 304 306 309 310 305
259 263 270 269 256 244 243 244 242 243 247 248 250 251 251 252 251 252 249 241 239 241 238 234 237 243 251 252 244 242 247 254 256 251 240 235 242 250 253 257 255 249 246 247 249 253 253 249 246 251 260 269 273 273 279 286 291 300 308 310 310 308
263 266 270 265 254 248 245 243 240 241 245 245 247 249 250 253 253 252 247 237 235 238 234 231 237 245 251 249 240 239 243 244 241 237 232 233 240 248 250 252 255 250 244 245 249 248 247 243 242 249 258 266 271 270 274 278 286 301 309 310 312 312
277 275 272 263 258 255 251 248 244 243 243 240 242 246 249 254 254 250 240 231 230 233 232 231 236 244 247 242 237 240 238 227 225 226 229 234 239 243 245 245 248 250 245 245 246 240 236 235 240 247 253 263 268 267 270 274 284 300 306 305 310 311
288 282 277 268 260 255 250 248 245 243 242 240 240 243 248 253 252 244 234 227 226 228 230 231 235 240 243 241 237 239 233 222 221 221 227 240 242 238 243 245 241 245 249 246 238 230 226 230 239 245 251 260 266 263 263 271 281 293 298 297 302 304
296 286 274 265 260 256 248 242 241 243 243 241 240 242 246 249 245 238 230 225 225 227 229 230 233 236 239 240 235 233 231 226 222 218 227 244 244 238 243 244 238 242 247 240 230 226 225 230 238 245 250 255 261 258 257 266 275 283 289 286 290 295
294 294 284 270 260 257 252 242 241 242 237 236 241 242 245 246 239 233 230 226 224 225 227 228 230 232 233 235 233 230 229 226 219 215 229 245 242 238 243 242 240 243 242 235 230 228 230 238 242 243 248 253 255 252 251 258 266 275 279 274 279 280
280 286 290 282 266 258 255 247 241 236 229 230 237 239 242 243 234 231 232 227 223 222 223 224 225 227 228 229 228 228 226 221 213 213 229 242 237 235 241 242 242 242 239 234 231 229 234 244 246 245 249 251 251 247 246 253 259 267 271 268 272 269
282 284 291 298 288 264 252 248 241 227 223 228 235 238 240 235 227 230 233 227 221 218 218 219 221 224 226 227 225 223 221 214 210 216 228 235 234 235 240 241 240 239 236 234 233 232 236 242 246 249 252 249 248 244 243 249 256 265 269 270 273 269
287 289 293 297 295 288 269 254 237 220 220 228 235 238 230 221 222 228 229 223 219 215 215 216 221 226 227 230 227 220 215 210 214 223 228 230 233 236 239 239 238 239 237 234 234 237 241 244 245 248 250 248 246 245 245 249 256 266 270 271 274 271
286 289 290 284 284 297 302 280 242 220 221 227 231 231 218 214 221 224 222 221 217 214 213 216 224 230 230 231 226 213 208 210 218 226 225 224 228 234 239 239 238 238 238 238 239 243 245 247 248 248 249 247 245 246 249 253 259 268 272 273 275 272
286 290 290 287 287 293 300 305 266 222 218 223 222 219 212 213 218 218 218 219 217 217 216 217 223 228 229 227 218 207 205 209 215 220 221 221 224 232 238 238 238 238 238 240 243 246 248 249 249 249 250 249 246 247 250 257 263 268 271 273 274 272
285 291 291 287 290 289 288 307 296 223 218 219 214 209 207 209 211 212 218 217 217 220 220 219 221 224 226 220 213 209 207 207 210 214 219 222 224 230 235 237 238 239 238 240 243 246 248 250 250 249 250 249 247 246 248 255 262 266 268 270 270 269
277 284 288 285 289 291 285 293 303 236 225 218 212 208 205 205 205 210 218 217 217 218 218 221 222 223 222 214 208 208 206 206 210 213 217 223 226 229 233 235 237 238 237 238 241 245 248 250 250 248 248 248 244 242 245 252 259 263 265 266 266 263
273 275 281 286 292 295 287 281 271 245 233 220 215 211 209 209 206 210 216 216 217 218 219 223 224 222 216 207 203 203 204 209 214 216 218 223 227 230 232 233 235 237 237 238 241 245 248 250 249 247 245 244 241 241 242 247 252 256 259 262 263 259
279 276 277 283 291 292 283 278 264 242 237 230 221 216 215 212 207 210 214 215 216 219 222 223 221 217 210 204 202 205 210 214 217 218 221 224 227 230 232 234 236 238 238 240 243 247 248 249 249 246 243 241 240 241 241 243 247 249 252 256 258 259
285 282 278 279 279 274 261 259 257 242 230 227 227 223 217 210 208 213 216 217 217 219 222 220 216 213 211 209 210 213 216 217 217 219 222 225 228 231 233 234 237 239 240 241 244 247 248 248 247 245 242 239 238 240 240 241 243 245 248 251 253 255
283 282 281 280 275 266 253 239 236 232 223 217 218 221 220 214 214 218 218 220 220 219 218 216 214 213 215 217 218 218 218 218 218 219 223 228 231 233 235 236 238 239 241 242 245 248 248 246 245 244 242 239 238 238 239 240 241 242 245 248 249 250
277 279 279 281 276 266 257 243 232 223 219 216 213 215 223 225 225 224 222 221 220 219 216 214 214 214 217 220 221 219 219 220 220 221 225 231 233 235 237 238 239 240 242 244 246 246 245 243 242 241 242 240 239 239 238 239 239 241 243 245 248 249
277 284 280 280 279 272 264 255 245 233 226 228 225 216 217 227 231 229 226 221 218 218 217 215 214 214 216 218 219 220 223 224 223 223 227 232 234 235 236 238 240 240 241 244 246 245 242 240 239 239 240 241 241 240 240 240 239 241 243 246 249 249
277 285 279 274 275 272 270 266 259 250 240 239 237 229 223 227 231 229 225 221 220 221 221 220 219 218 217 217 220 223 225 225 225 226 230 232 233 234 235 237 240 241 241 243 245 244 242 240 240 240 241 242 243 242 242 241 241 242 244 247 249 248
279 281 276 271 268 265 267 267 262 254 247 243 239 234 232 231 230 229 225 223 225 227 228 228 227 227 225 224 225 226 225 224 226 229 232 234 234 234 235 236 239 241 243 243 243 242 242 242 243 244 245 245 245 244 244 243 243 244 244 247 248 246
276 277 274 272 267 263 263 262 257 251 248 247 241 235 235 232 226 228 229 229 230 231 233 235 235 234 233 232 231 229 227 227 229 233 235 236 236 235 235 235 238 241 243 244 243 242 242 243 245 247 248 249 249 249 248 246 245 246 245 246 246 244
268 267 268 268 266 264 262 259 256 252 250 251 247 241 235 227 220 226 234 237 236 236 237 239 240 239 238 237 234 233 232 232 233 235 236 236 235 235 235 235 237 241 244 244 243 244 245 245 246 248 250 252 253 254 253 251 249 248 247 246 243 241
Height
5836 5836 5837 5838 5839 5839 5839 5839 5840 5840 5840 5840 5839 5838 5838 5837 5837 5837 5837 5836 5836 5836 5836 5836 5836 5836 5835 5835 5836 5836 5835 5835 5834 5834 5833 5833 5833 5833 5832 5832 5832 5833 5834 5832 5831 5829 5828 5829 5830 5830 5829 5830 5830 5830 5830 5829 5829 5828 5827 5827 5826 5826
5835 5836 5836 5837 5837 5837 5837 5838 5838 5838 5838 5838 5837 5836 5836 5835 5835 5835 5835 5834 5834 5834 5834 5834 5835 5834 5834 5834 5835 5835 5834 5834 5833 5833 5833 5832 5832 5832 5831 5831 5831 5832 5833 5832 5830 5828 5827 5828 5829 5829 5829 5829 5830 5829 5829 5829 5828 5828 5827 5827 5826 5825
5834 5835 5835 5835 5835 5835 5836 5836 5837 5837 5837 5836 5835 5834 5833 5833 5833 5833 5832 5832 5832 5833 5832 5832 5833 5832 5832 5833 5833 5833 5833 5833 5832 5832 5832 5831 5831 5830 5830 5830 5831 5831 5831 5831 5830 5828 5828 5828 5829 5828 5828 5828 5829 5829 5828 5828 5827 5827 5826 5826 5825 5825
5832 5833 5833 5833 5833 5834 5834 5835 5835 5835 5834 5834 5833 5832 5831 5831 5831 5831 5831 5830 5830 5831 5830 5830 5831 5831 5831 5831 5832 5832 5832 5832 5831 5831 5831 5830 5830 5829 5829 5829 5830 5830 5830 5830 5829 5829 5828 5828 5828 5828 5828 5828 5828 5828 5828 5827 5827 5826 5826 5825 5824 5824
5830 5831 5831 5831 5831 5831 5832 5832 5832 5832 5832 5831 5831 5830 5829 5829 5829 5829 5829 5829 5829 5829 5829 5829 5829 5829 5829 5830 5830 5830 5830 5830 5830 5830 5830 5829 5829 5828 5828 5829 5829 5829 5829 5829 5829 5829 5828 5828 5828 5828 5828 5828 5828 5828 5827 5826 5826 5825 5824 5824 5823 5823
5827 5828 5828 5828 5829 5829 5829 5829 5830 5829 5829 5829 5828 5827 5827 5827 5826 5827 5827 5827 5827 5827 5827 5827 5827 5827 5827 5828 5828 5828 5829 5829 5829 5829 5829 5828 5828 5827 5827 5828 5828 5828 5828 5828 5829 5829 5829 5828 5827 5827 5827 5827 5827 5827 5826 5826 5825 5824 5824 5823 5823 5822
5824 5824 5825 5825 5826 5826 5827 5827 5827 5827 5826 5826 5825 5825 5825 5824 5824 5825 5825 5826 5825 5826 5826 5825 5825 5826 5826 5826 5826 5826 5827 5827 5827 5828 5828 5828 5827 5827 5827 5828 5827 5827 5827 5827 5828 5829 5829 5828 5827 5827 5826 5826 5826 5826 5826 5825 5825 5824 5823 5823 5822 5822
5820 5821 5822 5822 5823 5823 5824 5824 5824 5824 5824 5823 5823 5823 5823 5822 5823 5823 5823 5824 5824 5824 5824 5823 5823 5824 5824 5824 5824 5825 5825 5826 5826 5826 5827 5826 5826 5826 5827 5828 5827 5826 5826 5826 5827 5828 5829 5828 5827 5826 5826 5826 5826 5825 5825 5825 5824 5824 5823 5823 5822 5821
5817 5818 5819 5819 5820 5820 5821 5821 5822 5822 5821 5821 5821 5821 5821 5821 5821 5822 5821 5822 5822 5822 5822 5821 5821 5821 5821 5822 5822 5823 5824 5824 5824 5825 5825 5825 5825 5826 5827 5827 5826 5825 5825 5825 5826 5827 5828 5828 5827 5826 5825 5825 5825 5825 5824 5824 5823 5823 5823 5822 5821 5820
5814 5815 5815 5815 5816 5817 5818 5818 5819 5819 5819 5819 5818 5819 5819 5819 5820 5820 5820 5820 5820 5820 5820 5820 5819 5820 5820 5820 5821 5821 5822 5822 5823 5823 5824 5824 5825 5826 5827 5827 5825 5825 5825 5824 5825 5827 5827 5827 5826 5826 5825 5825 5824 5824 5824 5823 5823 5823 5822 5822 5821 5820
5812 5811 5811 5812 5812 5813 5814 5815 5816 5816 5816 5816 5816 5816 5816 5817 5817 5817 5818 5818 5818 5818 5817 5817 5817 5818 5818 5819 5819 5820 5820 5821 5821 5822 5823 5824 5824 5825 5826 5826 5825 5825 5824 5824 5825 5826 5826 5826 5826 5825 5825 5824 5824 5824 5823 5823 5823 5822 5822 5821 5820 5819
5808 5807 5807 5809 5810 5811 5812 5812 5813 5813 5813 5813 5814 5814 5814 5815 5815 5815 5815 5815 5815 5815 5815 5815 5815 5816 5817 5817 5818 5818 5818 5819 5819 5821 5822 5822 5822 5823 5824 5825 5824 5824 5824 5824 5824 5825 5825 5825 5825 5824 5824 5824 5823 5823 5823 5823 5822 5822 5821 5821 5820 5819
5806 5805 5805 5807 5807 5808 5810 5812 5813 5812 5811 5811 5811 5812 5813 5814 5814 5814 5814 5813 5813 5813 5813 5813 5814 5815 5815 5816 5816 5816 5817 5817 5818 5819 5820 5820 5821 5822 5823 5823 5823 5823 5823 5824 5824 5824 5824 5824 5824 5823 5823 5823 5822 5822 5822 5822 5821 5821 5820 5820 5819 5818
5805 5805 5805 5806 5806 5806 5807 5808 5809 5810 5809 5808 5809 5811 5811 5812 5812 5812 5812 5812 5812 5811 5811 5812 5812 5813 5813 5814 5815 5815 5814 5815 5816 5818 5818 5818 5820 5821 5822 5823 5823 5823 5823 5823 5823 5823 5823 5823 5823 5822 5822 5822 5822 5821 5821 5821 5821 5820 5820 5819 5819 5818
5802 5803 5804 5804 5804 5803 5803 5803 5804 5805 5806 5806 5807 5808 5809 5809 5810 5810 5810 5810 5810 5810 5810 5810 5811 5812 5812 5813 5813 5813 5812 5813 5815 5816 5816 5817 5818 5820 5821 5822 5822 5822 5823 5823 5822 5822 5822 5822 5822 5821 5821 5821 5821 5821 5821 5821 5820 5820 5819 5819 5818 5817
5800 5801 5801 5802 5801 5801 5800 5800 5800 5802 5803 5804 5805 5806 5806 5807 5807 5808 5808 5808 5808 5808 5808 5809 5810 5810 5811 5811 5812 5811 5811 5812 5813 5814 5815 5815 5817 5819 5820 5820 5821 5821 5822 5822 5822 5821 5821 5821 5821 5821 5821 5820 5820 5820 5820 5820 5820 5819 5819 5818 5817 5816
5799 5799 5799 5800 5799 5798 5797 5797 5798 5800 5800 5800 5802 5803 5804 5805 5805 5805 5805 5805 5805 5806 5806 5807 5808 5808 5809 5810 5810 5809 5809 5810 5812 5813 5813 5814 5816 5817 5818 5819 5820 5821 5821 5821 5821 5820 5821 5821 5821 5821 5820 5820 5819 5819 5819 5819 5819 5818 5818 5817 5817 5816
5796 5796 5798 5798 5795 5794 5794 5795 5796 5797 5797 5798 5799 5800 5802 5802 5803 5803 5802 5803 5803 5804 5804 5805 5806 5807 5807 5808 5809 5808 5808 5809 5811 5812 5812 5813 5814 5816 5817 5818 5819 5820 5820 5820 5820 5820 5821 5821 5820 5820 5819 5819 5819 5818 5818 5818 5818 5817 5817 5816 5816 5815
5793 5792 5795 5795 5792 5791 5792 5793 5794 5795 5796 5797 5797 5798 5799 5800 5801 5800 5800 5800 5801 5802 5802 5804 5804 5805 5806 5806 5807 5807 5807 5808 5809 5811 5812 5812 5813 5814 5815 5816 5817 5818 5819 5819 5819 5820 5820 5820 5820 5819 5818 5818 5818 5818 5817 5817 5817 5816 5816 5816 5815 5815
5790 5788 5789 5790 5788 5788 5789 5790 5791 5792 5794 5795 5795 5796 5797 5798 5798 5798 5798 5798 5799 5800 5801 5802 5802 5803 5804 5805 5805 5806 5806 5806 5808 5810 5811 5811 5812 5813 5814 5815 5816 5817 5818 5818 5819 5819 5819 5819 5819 5818 5817 5817 5817 5817 5817 5816 5816 5816 5816 5815 5815 5814
5789 5787 5786 5785 5785 5786 5786 5786 5787 5787 5790 5792 5793 5794 5794 5795 5795 5795 5796 5797 5797 5798 5799 5800 5801 5802 5803 5803 5804 5805 5805 5805 5807 5809 5810 5811 5811 5812 5813 5814 5815 5816 5816 5817 5818 5818 5818 5818 5818 5817 5817 5816 5816 5816 5816 5816 5815 5815 5815 5815 5815 5814
5787 5785 5784 5783 5782 5783 5783 5784 5784 5785 5787 5788 5790 5791 5792 5793 5793 5794 5795 5796 5796 5796 5797 5798 5799 5800 5801 5802 5803 5803 5803 5804 5806 5808 5809 5810 5810 5811 5812 5812 5814 5814 5815 5816 5816 5816 5816 5817 5816 5816 5816 5815 5815 5815 5815 5815 5815 5815 5815 5815 5814 5814
5785 5783 5783 5782 5782 5781 5782 5783 5783 5783 5785 5786 5788 5788 5789 5791 5792 5793 5794 5795 5795 5795 5796 5797 5798 5799 5800 5801 5801 5801 5802 5803 5804 5807 5808 5809 5809 5809 5810 5811 5812 5813 5814 5814 5814 5815 5815 5815 5815 5815 5815 5815 5814 5814 5814 5814 5814 5814 5814 5814 5814 5814
5783 5782 5781 5781 5781 5781 5781 5782 5781 5782 5784 5785 5786 5787 5787 5789 5790 5791 5792 5793 5793 5793 5794 5795 5796 5797 5798 5799 5799 5800 5800 5801 5803 5805 5806 5807 5807 5808 5808 5810 5811 5811 5812 5812 5812 5813 5814 5814 5814 5814 5814 5813 5813 5813 5813 5814 5814 5814 5814 5814 5814 5813
5780 5780 5779 5779 5780 5780 5780 5779 5779 5780 5782 5784 5785 5785 5785 5787 5788 5790 5791 5791 5791 5792 5793 5793 5794 5795 5796 5797 5798 5798 5799 5800 5801 5803 5804 5805 5806 5806 5807 5808 5809 5810 5810 5810 5811 5811 5812 5813 5813 5813 5812 5812 5812 5812 5812 5812 5812 5812 5813 5813 5813 5812
5777 5777 5777 5777 5777 5778 5778 5777 5777 5778 5781 5782 5783 5783 5784 5786 5787 5788 5789 5789 5789 5790 5790 5791 5792 5793 5794 5795 5796 5797 5797 5799 5800 5801 5802 5803 5804 5805 5805 5807 5808 5808 5809 5809 5809 5810 5810 5811 5811 5811 5811 5810 5810 5810 5811 5811 5811 5811 5811 5811 5812 5811
5774 5775 5776 5776 5776 5775 5775 5775 5776 5778 5780 5781 5782 5782 5783 5785 5786 5786 5786 5786 5787 5787 5788 5789 5790 5791 5792 5793 5794 5795 5796 5797 5798 5799 5800 5801 5802 5803 5804 5805 5806 5807 5807 5808 5808 5808 5809 5809 5810 5810 5810 5809 5809 5809 5809 5810 5810 5810 5810 5810 5810 5810
5772 5772 5773 5774 5774 5774 5773 5773 5775 5777 5778 5779 5781 5782 5782 5783 5784 5784 5784 5784 5785 5786 5786 5787 5788 5789 5790 5791 5793 5794 5795 5796 5796 5798 5799 5800 5801 5802 5803 5804 5804 5805 5806 5806 5806 5807 5807 5807 5808 5808 5808 5808 5808 5808 5808 5808 5809 5809 5809 5809 5809 5809
5771 5771 5771 5771 5772 5772 5772 5772 5773 5775 5776 5778 5779 5780 5781 5781 5782 5783 5783 5783 5783 5784 5785 5785 5786 5788 5789 5790 5791 5792 5793 5794 5795 5796 5797 5799 5800 5800 5801 5802 5803 5803 5804 5804 5805 5805 5805 5806 5806 5807 5807 5807 5807 5807 5807 5807 5808 5808 5808 5808 5808 5808
5771 5771 5770 5769 5769 5770 5771 5771 5772 5773 5774 5775 5777 5778 5779 5779 5780 5781 5781 5781 5781 5782 5783 5784 5785 5786 5787 5789 5789 5790 5791 5792 5793 5794 5795 5797 5798 5799 5800 5800 5801 5802 5802 5803 5803 5803 5804 5804 5805 5805 5806 5806 5806 5806 5806 5807 5807 5807 5807 5807 5807 5807
5770 5769 5769 5768 5768 5768 5768 5769 5770 5771 5772 5773 5774 5775 5776 5777 5778 5779 5779 5779 5779 5780 5781 5782 5783 5785 5786 5787 5788 5789 5790 5791 5792 5792 5793 5794 5795 5796 5798 5798 5799 5800 5801 5801 5802 5802 5802 5803 5803 5804 5804 5804 5805 5805 5805 5806 5806 5806 5806 5806 5805 5805
5767 5767 5767 5767 5767 5767 5767 5767 5768 5769 5771 5772 5772 5773 5774 5775 5776 5777 5777 5777 5778 5778 5779 5780 5781 5783 5784 5785 5786 5787 5788 5788 5789 5790 5791 5792 5793 5794 5795 5796 5797 5799 5799 5800 5800 5801 5801 5801 5802 5802 5803 5803 5803 5804 5804 5804 5804 5804 5804 5804 5804 5803
5764 5764 5764 5765 5765 5766 5766 5766 5766 5767 5769 5770 5770 5771 5771 5773 5774 5775 5776 5776 5776 5776 5776 5777 5779 5780 5781 5783 5784 5784 5785 5786 5787 5788 5789 5790 5791 5792 5793 5794 5795 5796 5798 5798 5799 5799 5800 5800 5801 5801 5801 5801 5802 5802 5802 5803 5803 5803 5803 5803 5802 5802
5761 5762 5761 5762 5763 5764 5764 5764 5765 5766 5767 5768 5768 5768 5769 5770 5771 5773 5773 5774 5774 5774 5774 5775 5777 5778 5779 5781 5782 5782 5783 5784 5785 5786 5787 5788 5789 5790 5791 5792 5792 5794 5795 5796 5797 5798 5798 5799 5799 5800 5800 5800 5800 5800 5801 5801 5801 5801 5801 5801 5801 5800
5758 5759 5759 5758 5759 5760 5761 5761 5762 5763 5764 5765 5766 5766 5766 5767 5768 5770 5771 5771 5772 5772 5773 5774 5775 5776 5778 5779 5780 5780 5781 5782 5783 5783 5784 5786 5787 5788 5788 5789 5790 5791 5793 5794 5795 5795 5796 5797 5797 5798 5798 5798 5798 5799 5799 5799 5800 5800 5800 5799 5799 5798
5755 5755 5755 5755 5755 5756 5757 5758 5758 5760 5761 5762 5763 5763 5763 5764 5766 5767 5768 5769 5770 5770 5771 5772 5773 5774 5775 5777 5778 5778 5779 5780 5781 5782 5783 5784 5785 5786 5786 5787 5788 5789 5790 5791 5792 5793 5794 5795 5795 5796 5796 5796 5797 5797 5797 5798 5798 5798 5798 5797 5797 5796
5750 5750 5751 5751 5751 5752 5753 5754 5755 5756 5758 5759 5760 5760 5760 5761 5763 5764 5765 5766 5767 5768 5769 5769 5770 5771 5772 5774 5775 5776 5777 5778 5779 5780 5781 5782 5783 5783 5784 5785 5786 5787 5788 5789 5790 5791 5792 5793 5794 5794 5794 5794 5795 5795 5795 5796 5796 5797 5796 5795 5795 5794